Voltar ao catálogo

STARLINK-34161

AtivoComunicaçõesVLEO
NORAD 64017·PAYLOAD·🇺🇸 United States

Lançado May 14, 2025 de Cape Canaveral Space Force Station

Loading…

Próximas Passagens (próximas 24 horas)

TLE

AtualizadoSource: CelesTrak SupGP

Época: Sep 15, 2026, 03:10 UTC

1 64017C 25101Z   26258.13243056  .00024888  00000+0  90124-3 0  2580
2 64017  43.0038   7.9464 0001616 269.4439 306.0288 15.27573526    10

Acompanhe STARLINK-34161 em tempo real com AllMySat

Download on the App Store